User: anonymous   Login
Location: Tyler Bend Campground
(35.9875°N, 92.7606°W)
Time: 14:43:16
(UTC-06:00)
Language:

CZ-2C R/B - Orbit

View from above orbital plane
View from above orbital plane
View from above satellite
View from above satellite

Ground track
Ground track

The orbit data is extracted from the following two-line orbital elements,

1 36089U 09061B   14330.70080855  .00000337  00000-0  95802-4 0  4925
2 36089 098.0903 357.1946 0083047 040.3049 069.9932 14.49283768266479
Epoch (UTC): 26 November 2014 16:49:09
Eccentricity: 0.0083047
inclination: 98.0903°
perigee height: 669 km
apogee height: 787 km
right ascension of ascending node: 357.1946°
argument of perigee: 40.3049°
revolutions per day: 14.49283768
mean anomaly at epoch: 69.9932°
orbit number at epoch: 26647

The dashed part of the orbit path shows where the satellite is in the earth's shadow,  

DLR